Regional Weather Roundup
Issued by NWS Green Bay, WI

Home | Current Version | Previous Version | Graphics & Text | Print | Product List | Glossary Off
Versions: 1 2 3 4 5 6 7 8 9 10 11 12 13 14 15 16 17 18 19 20 21 22 23 24 25 26 27 28 29 30 31 32 33 34 35 36 37 38 39 40 41 42 43 44 45 46 47 48 49 50

000
ASUS43 KGRB 281459
RWRGRB

NORTH-CENTRAL AND NORTHEAST WISCONSIN REGIONAL WEATHER ROUNDUP
NATIONAL WEATHER SERVICE GREEN BAY WI
900 AM CST SUN DEC 28 2014

WIZ005-009-010>012-018-019-281600-
NORTH CENTRAL WISCONSIN

CITY           SKY/WX    TMP DP  RH WIND       PRES   REMARKS
IRONWOOD       CLOUDY    16  14  93 W9        30.03R WCI   4
MANITOWISH WTR NOT AVBL
ARBOR VITAE    NOT AVBL
EAGLE RIVER    NOT AVBL
LAND O LAKES   NOT AVBL
RHINELANDER    CLOUDY    10   7  87 W7        30.04R WCI  -1
PHILLIPS       NOT AVBL
ANTIGO         NOT AVBL
TOMAHAWK       NOT AVBL
MERRILL        NOT AVBL
$$

WIZ013-073-281600-
NORTHEAST WISCONSIN

CITY           SKY/WX    TMP DP  RH WIND       PRES   REMARKS
IRON MOUNTAIN    N/A     15  10  80 W9        30.03R WCI   3
MARINETTE      SUNNY     18  10  73 W9        30.08R WCI   6
$$

WIZ017-030-035>037-045-281600-
CENTRAL WISCONSIN

CITY           SKY/WX    TMP DP  RH WIND       PRES   REMARKS
MEDFORD        NOT AVBL
WAUSAU         CLOUDY    12  10  92 W5        30.08R FOG     WCI   4
MOSINEE        CLOUDY    12  12 100 W6        30.10R FOG     WCI   3
MARSHFIELD     MOSUNNY   10   8  92 SW3       30.10R
WISC RAPIDS    CLOUDY    14   9  80 W5        30.13R WCI   6
STEVENS POINT  NOT AVBL
WAUPACA        NOT AVBL
SHAWANO        NOT AVBL
CLINTONVILLE   NOT AVBL
$$

WIZ038-039-048-051-281600-
FOX VALLEY

CITY           SKY/WX    TMP DP  RH WIND       PRES   REMARKS
NWS GREEN BAY  MOSUNNY   20  15  81 W7        30.12R
APPLETON       PTSUNNY   18  14  86 W10       30.12R WCI   6
OSHKOSH        SUNNY     19  13  77 W8        30.14R WCI   9
FOND DU LAC    SUNNY     21  13  71 W5        30.15R
$$

WIZ022-050-052-281600-
EAST CENTRAL WISCONSIN

CITY           SKY/WX    TMP DP  RH WIND       PRES   REMARKS
STURGEON BAY   SUNNY     19  12  73 W9        30.10R WCI   9
MANITOWOC      NOT AVBL
SHEBOYGAN      SUNNY     23  16  74 W13       30.13R
$$

LMZ563-521-522-541>543-281600-
LAKESHORE

STATION/POSITION TIME  TEMP    WIND        PRES    VSBY  WAVE
                       AIR SEA DIR/SP/G                  HT/PER
                 (UTC) (F)     (DEG/KT/KT) (MB)    (MI)  (FT/S)
SHEBOYGAN LKSHOR 1400   22 37  270/ 15/ 19 1020.2R
KEWAUNEE LKSHORE 1400   22     290/ 10/ 16 1018.2R
NORTHPORT PIER   1400   22     270/  4/ 11 1018.3R
SISTER BAY LKSHO 1400          280/ 13/ 15   N/A
STURGEON BAY CG  1400   20     270/  7     1019.2      6   1
CHAMBERS ISLAND  1400   20     220/  6/ 10 1018.6R
MENOMINEE LKSHOR 1400   18     230/  8/ 12 1019.4R
$$


USA.gov is the U.S. government's official web portal to all federal, state and local government web resources and services.